Vertical_Velocity
-0 -1 -1 -1 -1 -1 -0 -0 -0 -0 -1 0 -0 -1 -1 -0 -0 0 3 1 0 2 -3 1 3 4 11 -8 -1 -1 2 -17 -7 -4 5 7 5 19 12 -3 3 1 -10 -0 -8
0 -0 -0 -0 -0 -1 -0 -0 -0 -0 -0 -0 -0 -1 0 -0 0 3 -1 -0 0 1 -2 -1 -1 -2 4 1 3 -6 1 -6 -15 6 1 9 9 4 5 2 0 -1 -5 -4 -1
-0 -0 -0 -0 -0 0 -0 -1 -1 -1 -1 -0 -0 -0 -1 1 1 -1 -1 1 -0 0 -2 1 3 3 -4 9 -3 -17 4 5 -2 2 4 5 16 3 1 2 2 -1 -8 -2 -1
-0 -0 -0 0 -0 -0 -0 -1 -1 -1 -1 -1 -1 -0 -2 0 0 0 -0 -0 -0 1 -2 0 6 -2 -3 6 2 1 -9 5 4 -1 10 -3 26 -3 3 6 -2 1 -4 -9 -3
-0 -0 -0 0 -0 -1 -1 -0 -0 -0 -1 -0 -1 -0 0 -0 0 0 1 -0 2 1 -0 0 7 3 2 11 11 5 -2 1 2 -0 -0 -10 6 -2 -8 -7 1 6 7 2 -5
-1 -1 -2 -1 -1 -1 -2 -1 -1 -1 -1 -1 -1 -1 1 -1 1 1 -1 -2 1 3 1 4 17 0 0 2 12 12 -4 -4 0 3 4 7 3 5 3 -2 -8 7 -0 -3 -3
-0 -1 -1 -1 0 1 -0 -1 -2 -2 -2 -1 -1 -1 0 -4 1 -1 -0 -2 -2 3 3 1 -0 -12 8 4 19 8 -10 -4 -11 1 -12 -4 0 2 -0 -1 3 -5 19 0 3
-0 -0 -1 -1 -0 -0 -0 -0 -1 -2 -1 -1 -0 0 -2 2 -3 3 -0 2 2 0 2 1 -6 -3 2 -0 16 7 10 -4 0 -3 -6 2 2 -6 -3 4 2 -4 -3 8 -5
-0 -0 -1 -1 -1 -1 -1 -1 -1 -2 -2 -1 -1 -1 -1 0 -2 -2 3 0 -0 2 6 2 -5 -4 5 3 10 7 3 -5 0 1 -5 -2 4 6 -1 -4 -1 -1 -6 13 -3
0 -1 -1 -1 -1 -1 -1 -1 -2 -1 -3 -2 -2 -2 -4 0 -3 0 1 -4 -3 0 -1 2 -2 -7 -5 -4 -8 4 3 1 2 -5 -5 -7 -4 1 5 2 4 -7 -5 6 -1
-1 1 0 -2 -1 0 0 -1 0 -2 -2 -2 -2 -2 0 7 -1 -2 2 -1 2 -0 -0 2 -2 -12 -11 -3 3 8 3 -2 4 -3 -3 -5 -2 -1 2 -5 -1 -5 -2 4 9
-2 -2 -1 -1 -0 0 1 2 1 4 -5 -4 -5 -5 -4 -1 13 -3 -1 -3 -5 -5 1 -2 -6 2 9 1 2 14 -1 9 2 4 -2 0 -7 -3 0 -2 2 4 -5 -2 -1
-2 -3 -2 -2 -2 -1 3 -0 2 -4 -7 1 -0 -3 -5 -6 3 -0 1 1 0 0 -0 -0 7 2 2 3 1 -0 14 -9 -1 -6 9 4 0 -4 -5 1 5 3 3 10 8
-1 -2 -2 -2 -0 -0 -3 -3 -1 -6 -6 0 -5 -5 -9 5 -6 -7 -4 7 -5 -1 7 -5 5 -8 0 -9 18 5 24 3 3 -3 -9 13 -5 -7 -0 -0 -6 4 1 -5 -8
-2 -2 -4 4 1 4 -2 1 0 -3 -3 1 -6 -5 2 -8 -4 -10 6 -5 -7 2 8 -13 -1 10 10 -6 15 8 9 -1 1 5 -1 1 -1 2 -0 -3 -7 -1 3 -3 3
-2 -5 2 -4 3 -4 7 2 3 1 -14 -4 -7 -3 -1 1 -2 3 -1 5 2 -2 1 -7 5 2 2 7 -5 9 -4 4 18 9 -1 9 1 -8 -2 -2 1 -0 4 9 1
-1 -6 -3 1 11 1 -2 1 3 -1 3 -8 -11 -5 -0 -2 4 2 2 0 -10 -5 -4 -1 -2 8 -2 -10 6 8 -5 -3 -5 -2 -11 6 5 -16 -9 2 -5 0 7 4 0
-2 -7 1 7 -6 1 6 4 3 3 4 25 15 10 -6 -12 1 -2 4 -4 1 3 3 1 -15 -2 1 -2 -8 -5 2 -7 -5 -3 -9 13 1 -2 -3 -8 -9 -3 7 14 1
-8 -1 1 -0 -3 3 2 1 -17 5 17 -3 12 18 8 5 -3 6 -3 -9 -1 -6 -6 4 -9 9 -4 1 6 -2 -5 13 1 5 3 2 2 0 1 0 -3 -3 -7 -2 -2
-1 -1 -6 1 5 2 7 -5 -10 14 5 4 2 14 19 23 7 11 5 -8 -0 -0 10 5 -5 21 1 9 7 -2 -3 -5 1 -2 -1 0 1 -2 3 -3 -3 -2 -4 -0 7
-4 2 1 1 3 3 -3 -9 -4 15 7 2 -1 -6 8 -4 9 -7 -7 8 15 -6 15 1 -4 6 8 4 -2 -5 -2 2 5 -1 -6 -1 -3 11 -2 8 6 3 -2 2 0
-3 1 -3 4 3 4 -2 4 8 6 14 -4 -2 3 6 19 4 18 14 -5 13 7 -6 -3 -7 -6 -1 1 1 0 8 5 5 -5 -1 1 -4 9 -3 -7 -3 -4 -3 -3 -9
-4 3 23 -1 -8 -0 7 -1 6 4 6 -1 -5 11 16 -2 15 22 4 3 1 -7 -4 -8 -1 -4 -10 6 8 -4 8 8 6 5 -2 -1 -3 -6 -7 -6 -2 -5 -1 -2 1
-3 -3 4 6 6 2 -3 -2 -7 6 -11 -2 -15 9 4 3 22 -6 4 3 8 2 -1 -2 -5 -6 -9 -7 -2 -5 -3 4 9 4 0 -5 -7 -5 -0 -2 -2 -10 -8 3 -13
-1 -6 -6 -2 4 -2 1 3 -4 -12 10 20 -5 11 6 -5 12 0 7 1 2 2 -7 -10 -9 -0 3 1 -1 -5 -0 2 5 5 3 9 6 8 5 -0 -6 7 -7 2 -2
-1 1 3 -1 -1 -4 2 -4 3 -5 0 3 -2 3 6 -6 5 6 -6 1 -9 -1 -0 -5 -7 2 1 1 3 -0 -8 -8 7 2 1 2 4 -3 -3 -4 -2 -2 7 -3 -1
-2 -1 -0 4 1 -4 7 -10 2 -9 12 -4 -3 -8 1 7 3 19 8 7 -2 -9 -2 -8 -8 2 -2 2 -2 -4 -3 -1 1 -1 2 -2 1 -2 -6 -5 -5 -5 -4 -4 -1
Height
3162 3162 3161 3160 3159 3158 3158 3157 3156 3156 3156 3156 3156 3156 3156 3157 3159 3161 3163 3166 3167 3170 3173 3175 3176 3177 3178 3175 3175 3176 3175 3178 3177 3179 3180 3179 3179 3180 3179 3177 3178 3179 3178 3179 3180
3163 3162 3161 3160 3160 3159 3158 3157 3156 3156 3155 3154 3154 3155 3155 3156 3158 3160 3162 3162 3165 3168 3172 3174 3176 3177 3178 3177 3178 3177 3177 3174 3174 3179 3180 3179 3181 3179 3180 3178 3178 3179 3179 3180 3182
3163 3163 3162 3160 3159 3158 3157 3157 3156 3155 3154 3153 3153 3153 3154 3155 3157 3158 3159 3160 3163 3166 3169 3173 3175 3177 3177 3178 3177 3173 3175 3176 3177 3179 3180 3179 3180 3180 3179 3180 3181 3181 3180 3181 3184
3164 3163 3162 3161 3159 3158 3157 3156 3155 3154 3153 3152 3152 3152 3153 3155 3159 3156 3157 3159 3161 3164 3168 3172 3174 3176 3176 3177 3178 3177 3178 3179 3179 3178 3179 3178 3180 3180 3181 3181 3180 3182 3180 3181 3184
3164 3163 3162 3161 3159 3158 3156 3155 3154 3153 3152 3151 3150 3150 3151 3154 3156 3156 3156 3157 3160 3163 3167 3170 3174 3175 3176 3178 3179 3178 3177 3178 3178 3178 3178 3178 3180 3180 3180 3181 3184 3184 3183 3184 3186
3165 3163 3162 3161 3159 3158 3156 3155 3153 3152 3151 3150 3149 3149 3150 3153 3154 3155 3156 3157 3159 3162 3165 3169 3172 3172 3173 3175 3178 3178 3178 3177 3177 3177 3179 3180 3180 3180 3180 3180 3184 3186 3185 3186 3189
3164 3163 3161 3160 3158 3156 3155 3154 3153 3151 3150 3149 3148 3148 3149 3151 3152 3153 3154 3156 3158 3161 3163 3165 3168 3170 3172 3174 3176 3176 3176 3178 3178 3177 3177 3178 3180 3180 3180 3180 3182 3186 3187 3187 3188
3163 3162 3160 3159 3158 3156 3154 3152 3152 3150 3149 3148 3148 3148 3149 3150 3150 3151 3153 3155 3158 3160 3162 3164 3165 3168 3170 3173 3176 3176 3176 3176 3177 3175 3177 3179 3178 3179 3178 3180 3181 3183 3184 3187 3187
3162 3161 3159 3158 3156 3155 3154 3152 3150 3150 3149 3148 3149 3149 3150 3150 3149 3149 3152 3153 3155 3159 3162 3163 3165 3167 3170 3172 3173 3175 3173 3175 3177 3176 3176 3177 3177 3179 3177 3178 3180 3181 3183 3186 3187
3161 3159 3158 3157 3155 3154 3153 3152 3150 3150 3149 3148 3148 3150 3149 3149 3148 3148 3150 3151 3153 3157 3159 3162 3164 3166 3167 3168 3169 3172 3173 3173 3174 3175 3174 3174 3174 3176 3175 3177 3180 3180 3180 3184 3184
3159 3158 3156 3155 3154 3153 3152 3152 3153 3151 3148 3147 3147 3146 3147 3149 3149 3148 3149 3150 3152 3154 3157 3159 3161 3162 3164 3166 3168 3170 3172 3171 3172 3173 3174 3172 3172 3174 3173 3174 3176 3177 3178 3181 3182
3157 3156 3155 3153 3152 3151 3151 3150 3150 3149 3144 3143 3143 3144 3144 3145 3148 3149 3149 3151 3151 3153 3155 3158 3156 3160 3164 3165 3166 3167 3170 3170 3170 3171 3171 3170 3170 3171 3172 3173 3174 3175 3176 3179 3181
3153 3153 3152 3151 3150 3150 3150 3149 3148 3143 3141 3141 3141 3142 3143 3144 3145 3147 3149 3149 3151 3152 3154 3155 3156 3159 3161 3162 3163 3164 3163 3165 3166 3168 3169 3170 3170 3168 3168 3170 3173 3174 3176 3178 3179
3148 3148 3148 3148 3149 3147 3147 3146 3145 3143 3141 3140 3140 3141 3141 3144 3145 3145 3147 3150 3149 3151 3153 3154 3155 3157 3158 3159 3162 3162 3163 3162 3161 3164 3166 3167 3165 3164 3163 3165 3167 3170 3171 3173 3175
3142 3141 3142 3143 3143 3143 3144 3143 3144 3145 3145 3140 3139 3140 3141 3142 3144 3144 3146 3148 3148 3148 3153 3150 3151 3154 3154 3156 3159 3160 3160 3161 3162 3164 3164 3164 3164 3159 3160 3161 3160 3164 3167 3168 3170
3137 3135 3137 3137 3138 3137 3139 3140 3144 3147 3138 3135 3136 3136 3139 3141 3142 3143 3144 3145 3146 3145 3147 3147 3149 3150 3152 3154 3156 3157 3159 3162 3163 3162 3161 3160 3164 3157 3157 3156 3157 3160 3163 3164 3166
3132 3130 3129 3130 3132 3134 3137 3140 3144 3139 3134 3134 3133 3135 3136 3139 3141 3142 3143 3141 3143 3145 3145 3145 3146 3148 3149 3151 3153 3155 3157 3160 3162 3161 3160 3157 3158 3155 3154 3153 3154 3157 3159 3163 3163
3126 3123 3122 3125 3125 3127 3130 3136 3136 3129 3129 3130 3133 3133 3134 3136 3139 3141 3142 3141 3142 3143 3144 3145 3145 3145 3146 3148 3150 3152 3155 3157 3163 3163 3157 3155 3153 3152 3153 3152 3152 3155 3158 3161 3161
3119 3116 3115 3116 3117 3120 3125 3126 3124 3126 3130 3129 3127 3131 3131 3132 3135 3138 3138 3139 3139 3141 3143 3143 3139 3138 3144 3146 3149 3150 3152 3154 3156 3157 3157 3155 3154 3153 3151 3151 3152 3154 3155 3157 3158
3113 3111 3110 3109 3112 3115 3119 3118 3119 3123 3125 3127 3128 3130 3130 3129 3131 3134 3134 3133 3133 3136 3139 3141 3139 3138 3141 3145 3146 3149 3152 3153 3154 3156 3156 3154 3152 3151 3153 3152 3152 3153 3154 3155 3158
3111 3110 3110 3108 3110 3112 3112 3113 3114 3120 3123 3125 3124 3124 3124 3125 3126 3126 3129 3130 3129 3132 3136 3137 3140 3142 3143 3144 3143 3147 3148 3150 3152 3153 3153 3155 3151 3150 3151 3152 3151 3152 3153 3154 3156
3109 3109 3109 3108 3112 3110 3112 3113 3115 3115 3121 3120 3120 3123 3121 3123 3121 3123 3124 3126 3127 3128 3131 3134 3137 3139 3140 3142 3143 3144 3145 3146 3147 3149 3148 3147 3149 3148 3148 3150 3151 3151 3151 3152 3153
3107 3108 3109 3108 3107 3108 3109 3108 3109 3110 3114 3115 3115 3118 3117 3116 3119 3118 3119 3124 3125 3126 3129 3132 3134 3135 3138 3141 3141 3141 3143 3144 3143 3143 3143 3145 3147 3146 3148 3148 3148 3149 3150 3149 3150
3106 3105 3105 3106 3105 3104 3103 3103 3103 3105 3105 3109 3108 3111 3111 3111 3115 3116 3116 3121 3123 3125 3127 3130 3132 3135 3137 3138 3140 3140 3139 3140 3142 3141 3140 3141 3141 3142 3144 3145 3145 3147 3149 3148 3147
3102 3101 3102 3101 3102 3101 3103 3102 3100 3099 3101 3103 3101 3105 3105 3108 3111 3112 3114 3116 3120 3121 3124 3128 3131 3132 3133 3135 3137 3138 3137 3137 3138 3138 3137 3138 3139 3140 3140 3141 3144 3142 3143 3144 3144
3100 3099 3099 3098 3098 3098 3098 3099 3097 3095 3095 3095 3096 3096 3099 3103 3108 3109 3110 3112 3115 3119 3122 3124 3127 3127 3129 3133 3134 3134 3134 3134 3133 3134 3135 3136 3137 3137 3137 3137 3139 3140 3139 3140 3140
3094 3094 3092 3093 3093 3093 3093 3092 3091 3088 3091 3093 3095 3094 3096 3101 3104 3107 3108 3109 3112 3116 3119 3122 3125 3126 3129 3129 3130 3132 3132 3133 3132 3131 3132 3133 3134 3134 3134 3134 3134 3135 3136 3135 3133